Flag for Norway Weather past 2 weeks in Kopervik, Norway

Now
77 °F

Scattered clouds.


Feels Like: 79 °F
Forecast: 65 / 72 °F
Wind: 5 mph from Northwest

Location: Haugesund / Karmoy

Current Time: Jul 26, 2014 at 6:06:48 PM

Latest Report: Jul 26, 2014 at 5:20 PM


Visibility: N/A

Pressure: 30.04 "Hg

Humidity: 54%

Dew point: 59 °F

Location of KopervikLocation

Historic Weather in Kopervik — Graph

°F

Kopervik temperature yesterday

Maximum temperature yesterday: 79 °F (at 10:50 AM)
Minimum temperature yesterday: 64 °F (at 5:50 AM)
Average temperature yesterday: 72 °F

Past Weeks' High & Low Weather Summary

 TemperatureHumidityPressure
High82 °F (Jul 20, 1:20 PM)100% (Jul 12, 3:50 AM)30.30 "Hg (Jul 12, 3:50 AM)
Low52 °F (Jul 18, 3:50 AM)37% (Jul 20, 1:20 PM)29.65 "Hg (Jul 14, 1:20 AM)
Average67 °F75%30.04 "Hg
* Reported Jul 11 4:20 PM — Jul 26 4:50 PM, Kopervik, Weather by CustomWeather, © 2014

Note: Actual official high and low records may vary slightly from our data, if they occured in-between our weather recording intervals... More about our weather records

Advertising

Kopervik weather history for previous 24 hours

 ConditionsComfort  
Time TempWeatherWind HumidityBarometerVisibility
4:50 PM
Jul 26
79 °FScattered clouds.7 mph48%30.04 "HgN/A
4:20 PM77 °FScattered clouds.7 mph54%30.04 "HgN/A
3:50 PM77 °FPassing clouds.8 mph47%30.04 "HgN/A
3:20 PM77 °FSunny.8 mph51%30.04 "Hg10 mi
2:50 PM79 °FSunny.7 mph45%30.04 "Hg10 mi
2:20 PM81 °FSunny.5 mph48%30.07 "Hg10 mi
1:50 PM79 °FPassing clouds.5 mph51%30.07 "HgN/A
1:20 PM77 °FSunny.5 mph54%30.07 "Hg10 mi
12:50 PM77 °FPassing clouds.3 mph57%30.07 "HgN/A
12:20 PM81 °FSunny.6 mph51%30.07 "Hg10 mi
11:50 AM79 °FSunny.7 mph58%30.09 "Hg10 mi
11:20 AM77 °FSunny.7 mph57%30.09 "Hg10 mi
10:50 AM79 °FPassing clouds.5 mph58%30.09 "HgN/A
10:20 AM79 °FPassing clouds.7 mph58%30.09 "HgN/A
9:50 AM77 °FSunny.9 mph57%30.09 "Hg10 mi
9:20 AM75 °FSunny.9 mph61%30.09 "Hg10 mi
8:50 AM75 °FSunny.7 mph69%30.09 "Hg10 mi
8:20 AM73 °FSunny.9 mph74%30.09 "Hg10 mi
7:50 AM72 °FSunny.6 mph78%30.09 "Hg10 mi
7:20 AM70 °FSunny.5 mph83%30.09 "Hg10 mi
6:50 AM68 °FPassing clouds.5 mph78%30.09 "HgN/A
6:20 AM66 °FSunny.5 mph83%30.09 "Hg10 mi
5:50 AM66 °FMild.5 mph83%30.09 "HgN/A
5:20 AM66 °FPassing clouds.3 mph83%30.09 "HgN/A
4:50 AM64 °FMild.6 mph83%30.09 "HgN/A
4:20 AM66 °FMild.5 mph83%30.09 "HgN/A
3:50 AM68 °FMild.5 mph78%30.09 "HgN/A
3:20 AM68 °FPassing clouds.5 mph78%30.09 "HgN/A
2:50 AM70 °FPassing clouds.3 mph73%30.09 "HgN/A
2:20 AM70 °FOvercast.1 mph73%30.09 "HgN/A
1:50 AM70 °FOvercast.5 mph73%30.12 "HgN/A
1:20 AM70 °FMostly cloudy.7 mph78%30.12 "HgN/A
12:50 AM70 °FMostly cloudy.6 mph78%30.12 "HgN/A
12:20 AM70 °FClear.7 mph78%30.12 "Hg10 mi
11:50 PM
Jul 25
70 °FClear.5 mph78%30.12 "Hg10 mi
11:20 PM70 °FSunny.7 mph83%30.12 "Hg10 mi
10:50 PM70 °FSunny.7 mph83%30.12 "Hg10 mi
10:20 PM72 °FSunny.6 mph73%30.12 "Hg10 mi
9:50 PM72 °FSunny.8 mph73%30.12 "Hg10 mi
9:20 PM73 °FSunny.8 mph65%30.12 "Hg10 mi
8:50 PM73 °FSunny.6 mph65%30.12 "Hg10 mi
8:20 PM73 °FPassing clouds.9 mph69%30.12 "HgN/A
7:50 PM75 °FSunny.9 mph65%30.12 "Hg10 mi
7:20 PM75 °FSunny.10 mph69%30.12 "Hg10 mi
6:50 PM75 °FSunny.8 mph69%30.12 "Hg10 mi
6:20 PM75 °FSunny.9 mph74%30.12 "Hg10 mi
Weather by CustomWeather, © 2014

See weather overviewHow to use our weather pages